Hourly Data Report for October 09, 2016

All times are specified in Local Standard Time (LST). Add 1 hour to adjust for Daylight Saving Time where and when it is observed.

GJOA HAVEN A
NUNAVUT

68°38'08.000" N
95°51'01.000" W
46.90 m
2302337
71597
YHK

Download Data

Hourly Data (October 2016)
Hourly Data Report for October 9, 2016
Temp Definition
°C
Dew Point Temp Definition
°C
Rel Hum Definition
%
Wind Dir Definition
10's deg

Wind Spd Definition
km/h
Visibility Definition
km
Stn Press Definition
kPa
Hmdx Definition


Wind Chill Definition


Weather Definition


TIME
00:00 Legend Double Dagger -4.5 -4.6 99 30 9 8.1 101.11   -8 Snow
01:00 Legend Double Dagger -4.1 -4.2 99 27 8 16.1 101.07   -8 Snow
02:00 Legend Double Dagger -3.9 -4.2 98 28 15 11.3 101.03   -9 Snow
03:00 Legend Double Dagger -5.1 -5.9 94 32 35 16.1 101.02   -14 LegendNANA
04:00 Legend Double Dagger -5.8 -7.0 91 32 30 16.1 101.03   -14 LegendNANA
05:00 Legend Double Dagger -6.0 -7.7 88 31 28 16.1 101.04   -14 LegendNANA
06:00 Legend Double Dagger -6.2 -8.0 87 31 26 16.1 101.02   -14 LegendNANA
07:00 Legend Double Dagger -6.1 -7.8 88 30 30 16.1 101.01   -14 LegendNANA
08:00 Legend Double Dagger -6.3 -7.1 94 28 24 2.8 100.98   -14 Snow
09:00 Legend Double Dagger -6.5 -7.3 94 28 22 3.2 100.95   -14 Snow
10:00 Legend Double Dagger -6.8 -7.9 92 29 28 6.4 100.92   -15 Snow
11:00 Legend Double Dagger -6.1 -7.5 90 29 28 11.3 100.92   -14 Snow
12:00 Legend Double Dagger -5.7 -7.2 89 29 28 16.1 100.91   -14 Snow
13:00 Legend Double Dagger -5.7 -7.7 86 31 26 16.1 100.92   -13 Snow
14:00 Legend Double Dagger -6.3 -8.4 85 30 30 16.1 100.94   -15 LegendNANA
15:00 Legend Double Dagger -6.9 -8.3 90 30 24 12.9 100.96   -15 Snow
16:00 Legend Double Dagger -7.4 -8.5 92 30 22 16.1 100.96   -15 LegendNANA
17:00 Legend Double Dagger -7.9 -8.8 93 30 21 16.1 100.96   -15 LegendNANA
18:00 Legend Double Dagger -7.7 -8.6 93 28 17 16.1 100.95   -14 LegendNANA
19:00 Legend Double Dagger -6.9 -7.7 94 27 21 11.3 100.89   -14 Snow
20:00 Legend Double Dagger -6.5 -7.3 94 28 22 16.1 100.84   -14 Snow
21:00 Legend Double Dagger -6.6 -7.7 92 28 26 16.1 100.79   -15 Snow
22:00 Legend Double Dagger -6.2 -7.3 92 29 32 16.1 100.75   -15 Snow
23:00 Legend Double Dagger -6.1 -6.9 94 31 21 6.4 100.74   -13 Snow

Notes on Data Quality.

Legend

  • E = Estimated
  • M = Missing
  • NA = Not Available
  • ‡ = Partner data that is not subject to review by the National Climate Archives
Date modified: